Flag for U.S.A. Weather past 2 weeks in Mobile, Alabama, U.S.A.

Now
80 °F

Sunny.


Feels Like: 83 °F
Forecast: 67 / 88 °F
Wind: 6 mph from East

Location: Mobile Downtown Airport

Current Time: Aug 28, 2015 at 10:23:39 AM

Latest Report: Aug 28, 2015 at 9:53 AM


Visibility: 10 mi

Pressure: 30.03 "Hg

Humidity: 67%

Dew point: 68 °F

Location of MobileLocation

Historic Weather in Mobile — Graph

°F

Mobile temperature yesterday

Maximum temperature yesterday: 89 °F (at 3:53 PM)
Minimum temperature yesterday: 65 °F (at 4:53 AM)
Average temperature yesterday: 77 °F

Past Weeks' High & Low Weather Summary

 TemperatureHumidityPressure
High96 °F (Aug 23, 2:53 PM)100% (Aug 22, 6:53 AM)30.08 "Hg (Aug 22, 6:53 AM)
Low62 °F (Aug 26, 6:53 AM)31% (Aug 14, 1:53 PM)29.93 "Hg (Aug 24, 5:53 PM)
Average81 °F74%30.00 "Hg
* Reported Aug 13 8:53 AM — Aug 28 8:53 AM, Mobile, Weather by CustomWeather, © 2015

Note: Actual official high and low records may vary slightly from our data, if they occured in-between our weather recording intervals... More about our weather records

Advertising

Mobile weather history for previous 24 hours

 ConditionsComfort  
Time TempWeatherWind HumidityBarometerVisibility
8:53 AM
Fri, Aug 28
78 °FSunny.6 mph69%30.02 "Hg10 mi
7:53 AM73 °FSunny.8 mph81%30.01 "Hg10 mi
6:53 AM68 °FClear.6 mph87%29.98 "Hg10 mi
5:53 AM68 °FClear.7 mph84%29.97 "Hg10 mi
4:53 AM69 °FPassing clouds.8 mph81%29.97 "Hg10 mi
3:53 AM68 °FPassing clouds.5 mph84%29.96 "Hg10 mi
2:53 AM69 °FClear.8 mph84%29.96 "Hg10 mi
1:53 AM70 °FClear.6 mph81%29.96 "Hg10 mi
12:53 AM71 °FClear.6 mph78%29.98 "Hg10 mi
11:53 PM
Thu, Aug 27
74 °FClear.5 mph71%29.98 "Hg10 mi
10:53 PM78 °FClear.8 mph60%29.98 "Hg10 mi
9:53 PM77 °FClear.7 mph62%29.99 "Hg10 mi
8:53 PM77 °FClear.7 mph62%29.98 "Hg10 mi
7:53 PM80 °FSunny.7 mph54%29.96 "Hg10 mi
6:53 PM85 °FSunny.8 mph46%29.95 "Hg10 mi
5:53 PM87 °FSunny.9 mph45%29.93 "Hg10 mi
4:53 PM89 °FSunny.8 mph41%29.93 "Hg10 mi
3:53 PM89 °FPassing clouds.6 mph43%29.94 "Hg10 mi
2:53 PM88 °FSunny.9 mph45%29.96 "Hg10 mi
1:53 PM88 °FPassing clouds.6 mph43%29.97 "Hg10 mi
12:53 PM87 °FPassing clouds.9 mph42%29.98 "Hg10 mi
11:53 AM84 °FPassing clouds.7 mph51%30.00 "Hg10 mi
10:53 AM82 °FSunny.6 mph53%30.01 "Hg10 mi
Weather by CustomWeather, © 2015

See weather overviewHow to use our weather pages